Location: Chervonnoye
(48.6000°N, 34.4000°E)
Time: 16:38:15
(UTC+00:00)

Okean-O - Pass Details

Date: 25 April 2021
Orbit: 639 x 640 km, 98.2° (Epoch: 16 May)

Event Time Altitude Azimuth Distance (km) Brightness Sun altitude
Rises 18:04:26 0° 221° (SW) 2,936 6.1 -11.8°
Reaches altitude 10° 18:08:27 10° 258° (WSW) 2,035 5.8 -12.3°
Maximum altitude 18:09:37 11° 273° (W) 1,978 6.0 -12.5°
Drops below altitude 10° 18:10:46 10° 289° (WNW) 2,039 6.5 -12.6°
Sets 18:14:51 0° 326° (NW) 2,956 7.6 -13.1°
